Guymon, OK

7:31 PM CDT on September 23, 2017 (GMT -0500)
Guymon Municipal

Weather History for KGUY - September, 2013

Change the Weather History Date:

Friday, September 6, 2013

  Actual Average Record
Temperature  
Mean Temperature 80 °F 74 °F  
Max Temperature 99 °F 89 °F 105 °F (2000)
Min Temperature 60 °F 60 °F 48 °F (2017)
Degree Days  
Heating Degree Days 0 0  
Month to date heating degree days 0 0  
Since 1 July heating degree days 0 1  
Cooling Degree Days 15 10  
Month to date cooling degree days 88 62  
Year to date cooling degree days 1639 1311  
Growing Degree Days 30 (Base 50)    
Moisture  
Dew Point 47 °F    
Average Humidity 36    
Maximum Humidity 56    
Minimum Humidity 16    
Precipitation  
Precipitation 0.00 in 0.06 in 0.65 in (2005)
Month to date precipitation T 0.37  
Year to date precipitation 10.55 15.14  
Snow  
Snow 0.00 in - - ()
Month to date snowfall 0.0  
Since 1 July snowfall 0.0  
Since 1 September snowfall 0.0  
Snow Depth 0.00 in    
Sea Level Pressure  
Sea Level Pressure 29.95 in    
Wind  
Wind Speed 9 mph (South)    
Max Wind Speed 20 mph    
Max Gust Speed 26 mph    
Visibility 10 miles    
Events      
T = Trace of Precipitation, MM = Missing Value Source: NWS Daily Summary

Daily Weather History Graph

Daily Weather History Graph

Search for Another Location

Airport or City:

Trip Planner

Search our weather history database for the weather conditions in past years. The results will help you decide how hot, cold, wet, or windy it might be!

Date:

Astronomy

Sep. 06, 2013 Rise Set
Actual Time 7:21 AM CDT 8:06 PM CDT
Civil Twilight 6:55 AM CDT 8:32 PM CDT
Nautical Twilight 6:24 AM CDT 9:03 PM CDT
Astronomical Twilight 5:52 AM CDT 9:35 PM CDT
Moon 8:32 AM CDT (9/6) 8:36 PM CDT (9/6)
Length of Visible Light 13h 37m
Length of Day
12h 45m
New Moon, 2% of the Moon is Illuminated
Sep 6
New Moon
Sep 12
First Quarter
Sep 19
Full
Sep 26
Last Quarter
Oct 4
New

Hourly Weather History & Observations

Time (CDT) Temp. Dew Point Humidity Pressure Visibility Wind Dir Wind Speed Gust Speed Precip Events Conditions
12:53 AM 72.0 °F 44.1 °F 37% 30.00 in 10.0 mi South 8.1 mph - N/A   Clear
1:53 AM 70.0 °F 43.0 °F 38% 29.99 in 10.0 mi SSW 10.4 mph - N/A   Clear
2:53 AM 69.1 °F 45.0 °F 42% 29.99 in 10.0 mi SSW 6.9 mph - N/A   Clear
3:53 AM 68.0 °F 45.0 °F 43% 29.99 in 10.0 mi SSW 9.2 mph - N/A   Clear
4:53 AM 64.9 °F 46.9 °F 52% 29.99 in 10.0 mi SSW 5.8 mph - N/A   Clear
5:53 AM 62.1 °F 46.9 °F 58% 30.00 in 10.0 mi SW 4.6 mph - N/A   Clear
6:53 AM 63.0 °F 44.1 °F 50% 30.01 in 10.0 mi WSW 5.8 mph - N/A   Clear
7:53 AM 61.0 °F 44.1 °F 54% 30.02 in 10.0 mi SSW 6.9 mph - N/A   Clear
8:53 AM 69.1 °F 44.1 °F 40% 30.03 in 10.0 mi SSW 5.8 mph - N/A   Clear
9:53 AM 78.1 °F 48.0 °F 35% 30.01 in 10.0 mi South 4.6 mph - N/A   Clear
10:53 AM 87.1 °F 50.0 °F 28% 30.00 in 10.0 mi South 9.2 mph - N/A   Clear
11:53 AM 93.0 °F 44.1 °F 18% 29.99 in 10.0 mi South 13.8 mph - N/A   Clear
12:53 PM 95.0 °F 45.0 °F 18% 29.96 in 10.0 mi SSW 11.5 mph 18.4 mph N/A   Clear
1:53 PM 96.1 °F 43.0 °F 16% 29.93 in 10.0 mi South 15.0 mph 25.3 mph N/A   Clear
2:53 PM 97.0 °F 43.0 °F 16% 29.91 in 10.0 mi South 18.4 mph 25.3 mph N/A   Clear
3:53 PM 98.1 °F 46.0 °F 17% 29.89 in 10.0 mi South 9.2 mph 19.6 mph N/A   Clear
4:53 PM 97.0 °F 46.0 °F 18% 29.88 in 10.0 mi SSE 12.7 mph 21.9 mph N/A   Clear
5:53 PM 96.1 °F 46.0 °F 18% 29.88 in 10.0 mi South 9.2 mph - N/A   Clear
6:53 PM 95.0 °F 50.0 °F 22% 29.87 in 10.0 mi South 9.2 mph - N/A   Clear
7:53 PM 90.0 °F 50.0 °F 25% 29.88 in 10.0 mi South 6.9 mph - N/A   Clear
8:53 PM 84.0 °F 50.0 °F 31% 29.89 in 10.0 mi SSE 8.1 mph - N/A   Clear
9:53 PM 81.0 °F 51.1 °F 35% 29.89 in 10.0 mi SSE 8.1 mph - N/A   Clear
10:53 PM 80.1 °F 52.0 °F 38% 29.89 in 10.0 mi South 9.2 mph - N/A   Clear
11:53 PM 78.1 °F 53.1 °F 42% 29.90 in 10.0 mi South 9.2 mph - N/A   Clear